Tracking 26911 objects as of 8-Feb-2023
HD Live streaming from Space Station
objects crossing your sky now

FOSSASAT2E5

Track FOSSASAT2E5 now!
10-day predictions
FOSSASAT2E5 is classified as:


NORAD ID: 51001
Int'l Code: 2022-002T
Perigee: 464.6 km
Apogee: 477.9 km
Inclination: 97.5 °
Period: 93.9 minutes
Semi major axis: 6842 km
RCS: Unknown
Launch date: January 13, 2022
Source: South Africa (SAFR)
Launch site: AIR FORCE EASTERN TEST RANGE (AFETR)

Uplink (MHz):
Downlink (MHz): 401.700
Beacon (MHz):
Mode: 9600bps GFSK 125k LoRa
Call sign:
Status: Active

Your satellite tracking list
Your tracking list is empty




NASA's NSSDC Master Catalog

Two Line Element Set (TLE):
1 51001U 22002T   23038.70188311  .00091421  00000-0  27535-2 0  9999
2 51001  97.4595 110.7482 0009725 311.7760  48.2650 15.33936053 59286
Source of the keplerian elements: AFSPC